Location: Sevilla
(37.3933°N, 5.9839°W)
Time: 02:23:06
(UTC+02:00)

Vanguard 3 - Pass Details

Date: 28 June 2024
Orbit: 508 x 3230 km, 33.3° (Epoch: 24 July)

Event Time Altitude Azimuth Distance (km) Brightness Sun altitude
Rises 05:49:09 0° 196° (SSW) 7,171 - -13.0°
Exits shadow 05:50:27 - 194° (SSW) 6,967 11.4 -12.8°
Reaches altitude 10° 05:56:11 10° 182° (S) 6,106 11.2 -12.0°
Maximum altitude 06:07:57 20° 144° (SE) 4,836 11.0 -10.2°
Drops below altitude 10° 06:17:38 10° 104° (ESE) 4,978 11.7 -8.7°
Sets 06:22:21 0° 89° (E) 5,543 12.4 -8.0°
